Total_Precipitation_Accumulation
0.17 0.20 0.22 0.25 0.24 0.23 0.27 0.34 0.40 0.50 0.60 0.82 1.15 1.58 1.80 1.91 1.92 1.94 1.85 1.64 1.42 1.42 1.55 1.51 1.48 1.45 1.38 1.28 1.17 1.20 1.10 0.83 0.63 0.66 0.57 0.39 0.25 0.21 0.18 0.15 0.14 0.14 0.13
0.12 0.11 0.13 0.15 0.14 0.14 0.17 0.26 0.33 0.42 0.56 0.82 1.14 1.49 1.85 1.92 1.93 1.93 1.88 1.76 1.65 1.65 1.68 1.84 1.90 1.85 1.89 1.83 1.59 1.63 1.59 1.25 0.93 1.01 1.17 0.88 0.59 0.34 0.23 0.21 0.19 0.18 0.18
0.11 0.09 0.08 0.09 0.10 0.11 0.12 0.18 0.24 0.38 0.66 1.00 1.32 1.51 1.80 1.92 1.97 1.91 1.91 1.95 1.90 1.80 1.82 1.91 2.04 2.03 2.05 2.08 2.08 1.97 1.98 1.74 1.34 1.12 1.23 1.10 0.93 0.69 0.35 0.26 0.28 0.27 0.26
0.14 0.12 0.09 0.07 0.08 0.09 0.11 0.14 0.20 0.40 0.73 1.08 1.34 1.57 1.92 2.03 1.99 2.02 2.00 2.02 2.05 2.01 2.05 2.05 2.13 2.13 2.11 2.14 2.20 2.11 2.12 2.13 1.75 1.45 1.18 0.97 0.90 0.85 0.63 0.40 0.33 0.35 0.31
0.15 0.12 0.10 0.09 0.10 0.10 0.13 0.20 0.33 0.52 0.77 0.97 1.23 1.58 1.83 1.94 2.10 2.05 2.02 2.02 2.07 2.07 2.09 2.14 2.26 2.24 2.16 2.13 2.30 2.29 2.30 2.19 2.07 1.87 1.66 1.46 1.19 0.83 0.81 0.76 0.56 0.44 0.34
0.16 0.16 0.15 0.15 0.16 0.18 0.24 0.33 0.49 0.64 0.84 1.00 1.20 1.38 1.64 1.79 1.95 2.04 1.97 1.95 1.99 2.07 1.96 1.88 2.00 2.03 2.04 2.04 2.17 2.30 2.38 2.32 2.32 2.14 1.81 1.66 1.47 1.15 1.06 0.91 0.74 0.65 0.45
0.26 0.30 0.31 0.34 0.41 0.44 0.47 0.55 0.65 0.75 0.87 0.96 1.05 1.11 1.28 1.45 1.52 1.67 1.76 1.86 1.86 1.90 1.91 1.80 1.78 1.75 1.70 1.73 1.85 1.91 1.96 2.06 2.19 2.08 1.83 1.74 1.50 1.36 1.30 1.15 0.93 0.77 0.50
0.43 0.53 0.61 0.69 0.76 0.75 0.74 0.80 0.85 0.84 0.82 0.87 0.93 0.96 1.03 1.10 1.16 1.20 1.26 1.42 1.58 1.61 1.66 1.65 1.58 1.58 1.63 1.63 1.69 1.71 1.71 1.70 1.76 1.79 1.80 1.80 1.63 1.47 1.32 1.27 1.29 1.10 0.84
0.71 0.81 0.91 0.92 0.93 0.90 0.85 0.86 0.88 0.86 0.84 0.84 0.84 0.79 0.78 0.84 0.92 0.94 1.01 1.07 1.16 1.18 1.23 1.31 1.35 1.38 1.46 1.51 1.62 1.67 1.67 1.60 1.57 1.66 1.71 1.65 1.58 1.50 1.35 1.26 1.25 1.26 1.10
1.06 1.19 1.27 1.17 1.10 1.09 1.13 1.01 0.92 0.85 0.82 0.82 0.82 0.76 0.71 0.74 0.76 0.76 0.83 0.82 0.83 0.82 0.88 0.99 1.11 1.24 1.36 1.45 1.52 1.55 1.61 1.63 1.59 1.64 1.72 1.73 1.74 1.72 1.60 1.45 1.35 1.22 1.17
1.43 1.52 1.53 1.43 1.23 1.10 1.09 1.03 0.92 0.81 0.71 0.70 0.75 0.74 0.69 0.69 0.71 0.69 0.66 0.61 0.63 0.67 0.76 0.80 0.92 1.03 1.13 1.32 1.49 1.52 1.53 1.53 1.51 1.48 1.53 1.63 1.72 1.81 1.79 1.74 1.58 1.41 1.32
1.30 1.34 1.30 1.29 1.18 1.08 0.99 0.95 0.84 0.71 0.65 0.69 0.71 0.73 0.65 0.60 0.61 0.60 0.60 0.54 0.51 0.54 0.61 0.71 0.85 0.96 1.01 1.04 1.14 1.22 1.23 1.24 1.29 1.28 1.26 1.34 1.43 1.54 1.66 1.72 1.67 1.59 1.44
0.98 1.07 1.13 1.04 1.00 0.92 0.87 0.94 0.94 0.83 0.81 0.84 0.89 0.82 0.69 0.65 0.63 0.58 0.57 0.53 0.52 0.55 0.59 0.70 0.81 0.86 0.88 0.91 0.87 0.89 0.96 1.00 1.01 1.06 1.04 1.06 1.13 1.24 1.35 1.43 1.49 1.55 1.56
0.78 0.84 0.92 0.88 0.89 0.83 0.80 0.89 0.93 0.95 1.02 1.10 1.06 0.89 0.77 0.70 0.63 0.57 0.51 0.50 0.54 0.58 0.62 0.75 0.82 0.83 0.77 0.83 0.83 0.80 0.79 0.78 0.76 0.81 0.83 0.86 0.86 0.90 1.02 1.18 1.34 1.47 1.54
0.56 0.55 0.55 0.56 0.63 0.63 0.60 0.64 0.71 0.82 0.98 1.05 0.94 0.80 0.68 0.58 0.52 0.54 0.49 0.50 0.56 0.58 0.64 0.67 0.77 0.81 0.79 0.81 0.85 0.79 0.67 0.64 0.67 0.64 0.56 0.59 0.65 0.64 0.67 0.74 0.99 1.19 1.33
0.33 0.31 0.28 0.28 0.33 0.33 0.35 0.39 0.47 0.62 0.84 0.93 0.80 0.64 0.56 0.53 0.48 0.47 0.42 0.41 0.42 0.47 0.53 0.56 0.72 0.84 0.76 0.87 0.83 0.70 0.59 0.57 0.59 0.56 0.51 0.51 0.56 0.50 0.43 0.44 0.61 0.86 1.01
0.23 0.24 0.22 0.20 0.20 0.20 0.23 0.30 0.36 0.50 0.60 0.62 0.57 0.47 0.41 0.39 0.38 0.37 0.37 0.38 0.40 0.43 0.48 0.52 0.66 0.75 0.84 0.78 0.61 0.62 0.59 0.60 0.60 0.61 0.62 0.58 0.55 0.62 0.51 0.43 0.45 0.53 0.64
0.21 0.21 0.21 0.20 0.21 0.22 0.23 0.32 0.37 0.39 0.44 0.52 0.50 0.43 0.38 0.35 0.35 0.34 0.35 0.43 0.44 0.42 0.46 0.51 0.54 0.61 0.72 0.64 0.49 0.53 0.50 0.59 0.65 0.68 0.72 0.73 0.69 0.65 0.70 0.63 0.65 0.60 0.55
0.13 0.13 0.13 0.12 0.12 0.12 0.11 0.13 0.17 0.22 0.27 0.30 0.35 0.34 0.29 0.30 0.33 0.33 0.39 0.43 0.43 0.47 0.48 0.52 0.54 0.59 0.62 0.56 0.46 0.47 0.53 0.66 0.69 0.66 0.73 0.75 0.68 0.73 0.77 0.83 0.89 0.82 0.68
0.03 0.03 0.03 0.03 0.03 0.02 0.03 0.04 0.05 0.06 0.09 0.10 0.14 0.18 0.19 0.23 0.28 0.37 0.43 0.42 0.40 0.46 0.47 0.46 0.46 0.50 0.52 0.55 0.43 0.51 0.61 0.67 0.68 0.68 0.74 0.88 0.78 0.74 0.72 0.73 0.83 0.84 0.73
0.00 0.00 0.00 0.01 0.01 0.01 0.01 0.02 0.02 0.02 0.02 0.02 0.04 0.07 0.11 0.17 0.25 0.32 0.32 0.32 0.35 0.39 0.40 0.44 0.43 0.44 0.51 0.61 0.60 0.64 0.64 0.68 0.73 0.81 0.86 0.83 0.87 0.67 0.63 0.63 0.61 0.66 0.65
0.00 0.00 0.00 0.00 0.00 0.00 0.00 0.00 0.00 0.00 0.00 0.00 0.01 0.02 0.04 0.07 0.12 0.20 0.23 0.26 0.30 0.31 0.31 0.32 0.33 0.37 0.48 0.56 0.57 0.58 0.61 0.68 0.68 0.73 0.73 0.70 0.76 0.58 0.49 0.45 0.48 0.51 0.48
0.00 0.00 0.00 0.00 0.00 0.00 0.00 0.00 0.00 0.00 0.00 0.00 0.00 0.00 0.01 0.02 0.06 0.12 0.17 0.21 0.27 0.29 0.27 0.26 0.28 0.32 0.36 0.43 0.45 0.45 0.44 0.47 0.51 0.49 0.57 0.56 0.53 0.45 0.37 0.40 0.41 0.41 0.42
0.00 0.00 0.00 0.00 0.00 0.00 0.00 0.00 0.00 0.00 0.00 0.00 0.00 0.00 0.01 0.01 0.03 0.06 0.13 0.21 0.24 0.23 0.23 0.25 0.27 0.31 0.34 0.33 0.34 0.38 0.38 0.37 0.41 0.39 0.39 0.38 0.37 0.37 0.37 0.37 0.37 0.39 0.42
0.00 0.00 0.00 0.00 0.00 0.00 0.00 0.00 0.00 0.00 0.00 0.00 0.00 0.00 0.00 0.01 0.02 0.02 0.06 0.13 0.15 0.14 0.18 0.23 0.27 0.31 0.34 0.30 0.27 0.27 0.33 0.39 0.44 0.48 0.40 0.36 0.36 0.37 0.42 0.41 0.37 0.38 0.41
0.00 0.00 0.00 0.00 0.00 0.00 0.00 0.00 0.00 0.00 0.00 0.00 0.00 0.00 0.00 0.01 0.01 0.02 0.03 0.05 0.05 0.07 0.08 0.09 0.13 0.13 0.13 0.13 0.13 0.16 0.21 0.28 0.34 0.47 0.52 0.53 0.57 0.59 0.58 0.53 0.42 0.35 0.34